Tracking 25734 objects as of 28-May-2022
HD Live streaming from Space Station
objects crossing your sky now

SCOUT G-1 DEB

Track SCOUT G-1 DEB now!
10-day predictions


NORAD ID: 43330
Int'l Code: 1988-033L
Perigee: 1,007.5 km
Apogee: 1,297.1 km
Inclination: 90.3 °
Period: 108.2 minutes
Semi major axis: 7523 km
RCS: Unknown
Launch date: April 26, 1988
Source: United States (US)
Launch site: AIR FORCE WESTERN TEST RANGE (AFWTR)

Note: This is SATELLITE DEBRIS
aabbcc
Your satellite tracking list
Your tracking list is empty




NASA's NSSDC Master Catalog

Two Line Element Set (TLE):
1 43330U 88033L   22142.26573292  .00000744  00000-0  14118-2 0  9994
2 43330  90.3267 332.4350 0192526 173.7325 186.6292 13.30425627461711
Source of the keplerian elements: AFSPC